Terug naar catalogus

DELTA 1 DEB

ActiefSSO
NORAD 26861·DEBRIS·🇺🇸 United States

Gelanceerd Mar 5, 1978 vanaf Vandenberg Space Force Base

Loading…

Volgende Passages (komende 24 uur)

TLE

VersSource: Space-Track

Epoch: Sep 14, 2026, 17:37 UTC

1 26861U 78026HV  26257.73411304  .00000114  00000-0  58417-4 0  9996
2 26861  98.8157 254.1560 0101398  85.5837 275.6921 14.29745587203485

Volg DELTA 1 DEB in realtime met AllMySat

Download on the App Store